Flag for Poland Weather past 2 weeks in Gdańsk, Poland

Now
46 °F

Light rain. Passing clouds.


Feels Like: 41 °F
Forecast: 43 / 50 °F
Wind: 13 mph from Southwest

Location: Gdansk-Rebiechowo

Current Time: Dec 18, 2014 at 11:06:36 PM

Latest Report: Dec 18, 2014 at 10:30 PM


Visibility: 5 mi

Pressure: 29.50 "Hg

Humidity: 100%

Dew point: 46 °F

Location of GdańskLocation

Historic Weather in Gdańsk — Graph

°F

Gdańsk temperature yesterday

Maximum temperature yesterday: 41 °F (at 12:00 PM)
Minimum temperature yesterday: 34 °F (at 10:00 PM)
Average temperature yesterday: 37 °F

Past Weeks' High & Low Weather Summary

 TemperatureHumidityPressure
High46 °F (Dec 18, 8:30 PM)100% (Dec 3, 10:00 PM)30.30 "Hg (Dec 3, 10:00 PM)
Low25 °F (Dec 3, 10:00 PM)61% (Dec 17, 1:30 PM)29.24 "Hg (Dec 12, 10:30 PM)
Average35 °F91%29.88 "Hg
* Reported Dec 3 10:00 PM — Dec 18 10:00 PM, Gdańsk, Weather by CustomWeather, © 2014

Note: Actual official high and low records may vary slightly from our data, if they occured in-between our weather recording intervals... More about our weather records

Advertising

Gdańsk weather history for previous 24 hours

 ConditionsComfort  
Time TempWeatherWind HumidityBarometerVisibility
10:00 PM
Dec 18
46 °FLight rain. Passing clouds.12 mph100%29.50 "Hg5 mi
9:30 PM46 °FLight rain. Passing clouds.13 mph93%29.53 "Hg5 mi
9:00 PM46 °FLight rain. Passing clouds.10 mph93%29.53 "Hg5 mi
8:30 PM46 °FLight rain. Passing clouds.10 mph93%29.56 "Hg4 mi
8:00 PM45 °FLight rain. Fog.10 mph100%29.56 "Hg2 mi
7:30 PM45 °FLight rain. Fog.12 mph93%29.56 "Hg3 mi
7:00 PM45 °FLight rain. Passing clouds.10 mph93%29.59 "Hg4 mi
6:30 PM45 °FLight rain. Passing clouds.12 mph93%29.59 "HgN/A
6:00 PM43 °FPartly cloudy.10 mph93%29.62 "HgN/A
5:30 PM45 °FPassing clouds.13 mph87%29.62 "HgN/A
5:00 PM45 °FPassing clouds.10 mph87%29.62 "HgN/A
4:30 PM43 °FPassing clouds.10 mph93%29.65 "HgN/A
4:00 PM43 °FPassing clouds.8 mph93%29.65 "HgN/A
3:30 PM43 °FPassing clouds.8 mph87%29.65 "HgN/A
3:00 PM43 °FScattered clouds.6 mph93%29.65 "HgN/A
2:30 PM43 °FPartly sunny.9 mph93%29.65 "HgN/A
2:00 PM41 °FPartly sunny.6 mph93%29.68 "HgN/A
1:30 PM41 °FPartly sunny.7 mph93%29.68 "HgN/A
1:00 PM41 °FPartly sunny.7 mph93%29.65 "HgN/A
12:30 PM39 °FPartly sunny.7 mph100%29.68 "Hg5 mi
12:00 PM39 °FPartly sunny.7 mph93%29.68 "Hg4 mi
11:30 AM37 °FFog.7 mph100%29.68 "Hg3 mi
11:00 AM37 °FFog.5 mph100%29.68 "Hg2 mi
10:30 AM37 °FDrizzle. Fog.6 mph100%29.68 "Hg1 mi
10:00 AM37 °FDrizzle. Fog.5 mph93%29.68 "Hg1 mi
9:30 AM36 °FDrizzle. Fog.3 mph100%29.68 "Hg1 mi
9:00 AM36 °FDrizzle. Fog.5 mph100%29.68 "Hg1 mi
8:30 AM36 °FFog.3 mph100%29.68 "Hg1 mi
8:00 AM36 °FFog.3 mph93%29.65 "Hg1 mi
7:30 AM36 °FFog.5 mph93%29.65 "Hg3 mi
7:00 AM36 °FFog.2 mph93%29.65 "Hg3 mi
6:30 AM36 °FFog.3 mph93%29.65 "Hg3 mi
6:00 AM36 °FPassing clouds.6 mph93%29.62 "Hg4 mi
5:30 AM36 °FPassing clouds.5 mph93%29.62 "Hg4 mi
4:30 AM34 °FPartly cloudy.6 mph100%29.62 "Hg4 mi
4:00 AM34 °FPassing clouds.6 mph100%29.62 "Hg4 mi
3:30 AM34 °FPassing clouds.5 mph93%29.62 "Hg4 mi
3:00 AM34 °FPassing clouds.3 mph93%29.65 "HgN/A
2:30 AM34 °FPassing clouds.5 mph93%29.65 "HgN/A
2:00 AM34 °FPassing clouds.3 mph93%29.65 "HgN/A
1:30 AM34 °FPassing clouds.5 mph93%29.65 "HgN/A
1:00 AM34 °FPassing clouds.3 mph87%29.65 "HgN/A
12:30 AM34 °FPassing clouds.5 mph87%29.65 "HgN/A
12:00 AM34 °FPassing clouds.6 mph93%29.65 "HgN/A
11:30 PM
Dec 17
34 °FClear.6 mph93%29.65 "Hg10 mi
11:00 PM34 °FPassing clouds.6 mph93%29.65 "HgN/A
Weather by CustomWeather, © 2014

See weather overviewHow to use our weather pages